Regional Weather Roundup
Issued by NWS

Home | Current Version | Previous Version | Graphics & Text | Print | Product List | Glossary On
Versions: 1 2 3 4 5 6 7 8 9 10 11 12 13 14 15 16 17 18 19 20 21 22 23 24 25 26 27 28 29 30 31 32 33 34 35 36 37 38 39 40 41 42 43 44 45 46 47 48 49 50
000
ASUS43 KFSD 221802
RWRSD

WEATHER ROUNDUP FOR SOUTH DAKOTA
NATIONAL WEATHER SERVICE SIOUX FALLS SD
100 PM CDT SAT JUL 22 2017

NOTE: "FAIR" INDICATES FEW OR NO CLOUDS BELOW 12,000 FEET WITH NO
SIGNIFICANT WEATHER AND/OR OBSTRUCTIONS TO VISIBILITY.


SDZ001>005-009-010-012>017-221900-
NORTHWEST AND NORTH CENTRAL SOUTH DAKOTA

CITY           SKY/WX    TMP DP  RH WIND       PRES   REMARKS
BUFFALO          N/A     84  41  21 NW10      30.03S
FAITH            N/A     89  38  16 NW16G23   30.03S
MOBRIDGE       SUNNY     86  60  41 W10       29.94F
$$

SDZ012>016-024>037-041>051-057-063-072>074-221900-
SOUTHWEST AND SOUTH CENTRAL SOUTH DAKOTA

CITY           SKY/WX    TMP DP  RH WIND       PRES   REMARKS
RAPID CTY ARPT SUNNY     86  37  17 NE12      30.09R
PIERRE         SUNNY     91  51  25 N10       29.95S
CUSTER         CLOUDY    81  37  20 SE13G23   30.22R
ELLSWORTH AFB  SUNNY     87  38  17 N5        30.08S
PHILIP         SUNNY     94  37  13 N10       30.00S
PINE RIDGE     LGT RAIN  85  51  31 E6        30.08R
SPEARFISH      LGT RAIN  84  36  17 VRB6G14   30.14S
WINNER         FAIR      89  63  41 CALM      30.00R
$$

SDZ004>011-016>023-039-040-221900-
NORTHEAST SOUTH DAKOTA

CITY           SKY/WX    TMP DP  RH WIND       PRES   REMARKS
ABERDEEN       SUNNY     85  68  56 VRB3      29.92S
WATERTOWN      SUNNY     81  71  71 NW8       29.92S
BROOKINGS      MOSUNNY   81  70  69 W13       29.93R
SISSETON         N/A     86  69  56 NW13      29.87S
$$

SDZ017-020-022-023-036>040-048>070-221900-
SOUTHEAST SOUTH DAKOTA

CITY           SKY/WX    TMP DP  RH WIND       PRES   REMARKS
SIOUX FALLS    PTSUNNY   83  73  72 NW8       29.90F
HURON          MOSUNNY   83  71  67 N7        29.92F
CHAMBERLAIN    CLOUDY    87  68  51 CALM      29.96S
MITCHELL       CLOUDY    85  71  63 VRB6      29.93S
YANKTON        CLOUDY    78  72  81 NW10      29.94R
$$

ABBREVIATIONS USED IN REMARKS
   TC - TEMPERATURE IN CELSIUS
  WCI - WIND CHILL INDEX
   HX - HEAT INDEX
  VSB - VISIBILITY




USA.gov is the U.S. government's official web portal to all federal, state and local government web resources and services.